HAUGESUND/KARMOY current weather conditions

sailwx.info

Wind from 110 at 20 knots

Air temperature 6.0° C
Visibility: greater than 5.4 NM
Dewpoint -2.0° C

Last reported at 2019-Dec-13 12:50 UTC.
Time now 2019-Dec-13 14:26 UTC

Location: N 59°21' E 005°13'.
View on Google Maps.

See reports from other nearby stations

  
Tides and Currents Weather Stations Pressure Air Temp Water Temp Dewpoint Dewpoint Depression Visibility Wind Speed Wind Dir Waves Ship Positions
date/time (UTC)wind fromknots sea level pressurealtimeterstation pressurevisibilityair tempwater tempwave heightnotes
2019-Dec-13 13:50 120 19 5.4 6.0
2019-Dec-13 13:20 110 20 gusting 32 5.4 6.0
2019-Dec-13 12:50 110 20 5.4 6.0
2019-Dec-13 12:20 110 19 gusting 29 5.4 6.0
2019-Dec-13 11:50 110 20 5.4 6.0
2019-Dec-13 11:20 110 21 gusting 34 5.4 6.0
2019-Dec-13 10:50 110 24 5.4 6.0
2019-Dec-13 10:20 110 20 5.4 6.0
2019-Dec-13 09:50 110 22 gusting 34 5.4 6.0
2019-Dec-13 09:20 110 21 5.4 5.0
2019-Dec-13 08:50 110 24 5.4 6.0
2019-Dec-13 08:20 110 22 5.4 5.0
2019-Dec-13 07:50 110 20 5.4 5.0
2019-Dec-13 07:20 110 22 5.4 5.0
2019-Dec-13 06:50 110 18 5.4 5.0
2019-Dec-13 06:20 120 15 5.4 5.0
2019-Dec-13 05:50 120 14 5.4 5.0
2019-Dec-13 05:20 120 13 5.4 5.0
2019-Dec-13 04:50 120 14 5.4 5.0
2019-Dec-13 04:20 140 20 5.4 5.0
2019-Dec-13 03:50 130 20 5.4 6.0
2019-Dec-13 03:20 130 14 5.4 6.0
2019-Dec-13 02:50 130 17 5.4 5.0
2019-Dec-13 02:20 120 15 5.4 5.0
2019-Dec-13 01:50 130 13 5.4 5.0
2019-Dec-13 01:20 130 13 5.4 5.0
2019-Dec-13 00:50 130 13 5.4 5.0
2019-Dec-13 00:20 130 14 5.4 4.0
2019-Dec-12 23:50 130 15 5.4 4.0
2019-Dec-12 23:20 130 15 5.4 4.0
2019-Dec-12 22:50 130 14 5.4 4.0
2019-Dec-12 22:20 130 13 5.4 4.0
2019-Dec-12 21:50 140 15 5.4 3.0
2019-Dec-12 21:20 120 12 5.4 3.0
2019-Dec-12 20:50 150 13 4.9 4.0 Light rain showers.
2019-Dec-12 20:20 130 13 5.4 4.0
2019-Dec-12 19:50 140 13 4.9 4.0 Small hail/snow pellets. Rain.
2019-Dec-12 19:20 130 13 2.7 4.0 Rain showers. Small hail/snow pellets.
2019-Dec-12 18:50 150 9 4.9 4.0 Small hail/snow pellets. Rain.
2019-Dec-12 18:20 210 15 5.4 5.0
2019-Dec-12 17:50 190 12 5.4 5.0
2019-Dec-12 17:20 150 9 5.4 4.0 Showers in the vicinity.
2019-Dec-12 16:50 180 13 5.4 5.0 Light rain showers.
2019-Dec-12 16:20 200 15 gusting 26 5.4 6.0 Light rain showers.
2019-Dec-12 15:50 200 14 5.4 6.0 Showers in the vicinity.
2019-Dec-12 15:20 200 15 5.4 7.0 Showers in the vicinity.
2019-Dec-12 14:50 210 15 5.4 6.0 Showers in the vicinity.
2019-Dec-12 14:20 190 13 5.4 6.0 Showers in the vicinity.
2019-Dec-12 13:50 210 13 5.4 6.0
2019-Dec-12 13:20 200 19 5.4 7.0 Light rain showers.
2019-Dec-12 12:50 170 11 5.4 6.0
2019-Dec-12 12:20 210 13 5.4 6.0 Drizzle.
2019-Dec-12 11:50 210 13 gusting 25 5.4 7.0
2019-Dec-12 11:20 180 15 5.4 6.0
2019-Dec-12 10:50 190 14 5.4 7.0
2019-Dec-12 10:20 190 14 5.4 7.0
2019-Dec-12 09:50 190 17 5.4 7.0
2019-Dec-12 09:20 200 17 5.4 7.0
2019-Dec-12 08:50 180 13 gusting 26 5.4 6.0 Showers in the vicinity.
2019-Dec-12 08:20 170 14 5.4 5.0 Showers in the vicinity.
2019-Dec-12 07:50 200 18 5.4 7.0 Showers in the vicinity.
2019-Dec-12 07:20 180 13 gusting 27 5.4 6.0
2019-Dec-12 06:50 190 19 gusting 28 5.4 6.0
2019-Dec-12 06:20 200 18 5.4 6.0 Light rain.
2019-Dec-12 05:50 190 20 gusting 33 5.4 6.0
2019-Dec-12 05:20 190 17 gusting 27 5.4 6.0
2019-Dec-12 04:50 190 18 5.4 7.0
2019-Dec-12 04:20 200 20 5.4 7.0
2019-Dec-12 03:50 200 20 5.4 7.0
2019-Dec-12 03:20 200 21 5.4 7.0
2019-Dec-12 02:50 200 21 gusting 32 5.4 7.0
2019-Dec-12 02:20 210 21 gusting 34 5.4 7.0
2019-Dec-12 01:50 200 22 5.4 7.0
2019-Dec-12 01:20 200 25 5.4 7.0
2019-Dec-12 00:50 210 27 gusting 39 5.4 7.0
2019-Dec-12 00:20 200 26 5.4 8.0
2019-Dec-11 23:50 210 31 5.4 7.0
2019-Dec-11 23:20 210 27 5.4 7.0
2019-Dec-11 22:50 200 27 gusting 39 5.4 7.0
2019-Dec-11 22:20 210 27 gusting 38 5.4 7.0
2019-Dec-11 21:50 210 27 5.4 7.0
2019-Dec-11 21:20 210 28 5.4 7.0
2019-Dec-11 20:50 220 35 5.4 6.0 Light rain showers.
2019-Dec-11 20:20 210 28 gusting 39 5.4 8.0
2019-Dec-11 19:50 210 29 5.4 8.0
2019-Dec-11 19:20 210 28 5.4 8.0
2019-Dec-11 18:50 210 31 5.4 8.0
2019-Dec-11 18:20 200 24 gusting 34 5.4 7.0 Showers in the vicinity.
2019-Dec-11 17:50 210 28 5.4 7.0 Showers in the vicinity.
2019-Dec-11 17:20 200 24 gusting 34 5.4 7.0 Showers in the vicinity.
2019-Dec-11 16:50 200 25 gusting 36 5.4 7.0 Showers in the vicinity.
2019-Dec-11 16:20 190 22 5.4 7.0 Light rain.
2019-Dec-11 15:50 190 22 gusting 38 5.4 8.0
2019-Dec-11 15:20 200 25 gusting 38 5.4 8.0 Showers in the vicinity.
2019-Dec-11 14:50 200 25 5.4 8.0 Showers in the vicinity.
2019-Dec-11 14:20 200 24 gusting 38 5.4 7.0 Rain showers.